,,PA_Meas_PMT16A,,PR_Meas_QMR101_102,,RH_Meas_QMH101,,SR_Meas_QMS101,,TA_Meas_QMH101,,GenWind,,GenWind,
time,status,PA,status,PR,status,RH,status,SR,status,TA,status,DirAvg,status,SpdAvg,
2014-01-21, 07:00:05,VALID,918.861,VALID,0,VALID,97.008,VALID,26.4305,VALID,18.3213,VALID,117,VALID,0.576172,
2014-01-21, 07:01:05,VALID,918.864,VALID,0,VALID,97.0003,VALID,28.6868,VALID,18.3199,VALID,117,VALID,0.684375,
2014-01-21, 07:02:05,VALID,918.853,VALID,0,VALID,97.008,VALID,30.9431,VALID,18.3589,VALID,117,VALID,0.799609,
2014-01-21, 07:03:05,VALID,918.809,VALID,0,VALID,97.0003,VALID,32.4472,VALID,18.3979,VALID,117,VALID,0.810938,
2014-01-21, 07:04:05,VALID,918.836,VALID,0,VALID,97.0232,VALID,33.4142,VALID,18.4383,VALID,117,VALID,1.06562,
2014-01-21, 07:05:05,VALID,918.774,VALID,0,VALID,97.0461,VALID,34.0588,VALID,18.4369,VALID,103,VALID,1.15313,
2014-01-21, 07:06:05,VALID,918.781,VALID,0,VALID,97.0461,VALID,35.2407,VALID,18.4773,VALID,103,VALID,1.06211,
2014-01-21, 07:07:05,VALID,918.822,VALID,0,VALID,97.0308,VALID,36.8523,VALID,18.4759,VALID,104,VALID,1.11055,
2014-01-21, 07:08:05,VALID,918.842,VALID,0,VALID,97.0232,VALID,38.8937,VALID,18.5149,VALID,106,VALID,0.871484,
2014-01-21, 07:09:05,VALID,918.864,VALID,0,VALID,97.0385,VALID,40.3979,VALID,18.5748,VALID,107,VALID,0.718359,
2014-01-21, 07:10:05,VALID,918.877,VALID,0,VALID,97.0308,VALID,41.5797,VALID,18.5539,VALID,108,VALID,0.927344,
2014-01-21, 07:11:05,VALID,918.876,VALID,0,VALID,97.0232,VALID,44.0509,VALID,18.5748,VALID,108,VALID,0.892187,
2014-01-21, 07:12:05,VALID,918.909,VALID,0,VALID,97.0308,VALID,45.9848,VALID,18.5734,VALID,107,VALID,0.74375,
2014-01-21, 07:13:05,VALID,918.914,VALID,0,VALID,97.0232,VALID,46.9518,VALID,18.5734,VALID,103,VALID,0.834375,
2014-01-21, 07:14:05,VALID,918.908,VALID,0,VALID,97.0003,VALID,48.1336,VALID,18.5734,VALID,103,VALID,1.03633,
2014-01-21, 07:15:05,VALID,918.914,VALID,0,VALID,97.0156,VALID,51.6792,VALID,18.6138,VALID,103,VALID,0.680859,
2014-01-21, 07:16:05,VALID,918.925,VALID,0,VALID,97.0003,VALID,56.0843,VALID,18.6124,VALID,103,VALID,0.591406,
2014-01-21, 07:17:05,VALID,918.967,VALID,0,VALID,97.0003,VALID,60.167,VALID,18.6333,VALID,104,VALID,0.527734,
2014-01-21, 07:18:05,VALID,918.977,VALID,0,VALID,96.9927,VALID,63.6052,VALID,18.6319,VALID,103,VALID,0.117969,
2014-01-21, 07:19:05,VALID,918.988,VALID,0,VALID,97.0003,VALID,67.9028,VALID,18.6903,VALID,104,VALID,0.375391,
2014-01-21, 07:20:05,VALID,919.005,VALID,0,VALID,97.0003,VALID,73.7046,VALID,18.6903,VALID,104,VALID,0.290234,
2014-01-21, 07:21:05,VALID,919.018,VALID,0,VALID,97.0156,VALID,80.4734,VALID,18.7098,VALID,103,VALID,0.233594,
2014-01-21, 07:22:05,VALID,919.042,VALID,0,VALID,96.9927,VALID,88.7464,VALID,18.7488,VALID,103,VALID,0.238281,
2014-01-21, 07:23:05,VALID,919.046,VALID,0,VALID,97.0003,VALID,94.8705,VALID,18.7683,VALID,104,VALID,0.0304688,
2014-01-21, 07:24:05,VALID,919.053,VALID,0,VALID,97.0232,VALID,97.3417,VALID,18.8073,VALID,103,VALID,0.00117188,
2014-01-21, 07:25:05,VALID,919.092,VALID,0,VALID,97.0003,VALID,99.1682,VALID,18.8477,VALID,103,VALID,0.485156,
2014-01-21, 07:26:05,VALID,919.105,VALID,0,VALID,96.9927,VALID,100.457,VALID,18.8463,VALID,103,VALID,0.430469,
2014-01-21, 07:27:05,VALID,919.149,VALID,0,VALID,96.9851,VALID,102.069,VALID,18.9438,VALID,104,VALID,0.376172,
2014-01-21, 07:28:05,VALID,919.149,VALID,0,VALID,96.9698,VALID,104.863,VALID,19.0037,VALID,110,VALID,0.615234,
2014-01-21, 07:29:05,VALID,919.165,VALID,0,VALID,96.9698,VALID,109.268,VALID,19.0622,VALID,117,VALID,0.495313,
2014-01-21, 07:30:05,VALID,919.171,VALID,0,VALID,96.947,VALID,107.441,VALID,19.1402,VALID,117,VALID,0.304688,
2014-01-21, 07:31:05,VALID,919.213,VALID,0,VALID,96.9165,VALID,110.127,VALID,19.1973,VALID,117,VALID,0.597266,
2014-01-21, 07:32:05,VALID,919.258,VALID,0,VALID,96.9089,VALID,119.689,VALID,19.2558,VALID,117,VALID,0.553516,
2014-01-21, 07:33:05,VALID,919.296,VALID,0,VALID,96.8707,VALID,135.698,VALID,19.3338,VALID,117,VALID,0.660156,
2014-01-21, 07:34:05,VALID,919.353,VALID,0,VALID,96.8174,VALID,151.814,VALID,19.4327,VALID,117,VALID,0.616797,
2014-01-21, 07:35:05,VALID,919.362,VALID,0,VALID,96.7411,VALID,150.632,VALID,19.5093,VALID,152,VALID,0.680469,
2014-01-21, 07:36:05,VALID,919.397,VALID,0,VALID,96.6725,VALID,137.954,VALID,19.6068,VALID,152,VALID,0.886719,
2014-01-21, 07:37:05,VALID,919.442,VALID,0,VALID,96.5582,VALID,132.69,VALID,19.6653,VALID,152,VALID,0.903516,
2014-01-21, 07:38:05,VALID,919.44,VALID,0,VALID,96.4286,VALID,124.954,VALID,19.7613,VALID,169,VALID,1.22344,
2014-01-21, 07:39:05,VALID,919.504,VALID,0,VALID,96.2533,VALID,116.251,VALID,19.8408,VALID,188,VALID,1.12188,
2014-01-21, 07:40:05,VALID,919.51,VALID,0,VALID,95.9559,VALID,118.83,VALID,19.9008,VALID,205,VALID,0.800391,
2014-01-21, 07:41:05,VALID,919.501,VALID,0,VALID,95.5824,VALID,120.442,VALID,19.9188,VALID,213,VALID,0.703516,
2014-01-21, 07:42:05,VALID,919.523,VALID,0,VALID,95.0411,VALID,120.334,VALID,19.9788,VALID,203,VALID,0.853516,
2014-01-21, 07:43:05,VALID,919.528,VALID,0,VALID,94.1797,VALID,122.375,VALID,19.9578,VALID,174,VALID,1.18203,
2014-01-21, 07:44:05,VALID,919.515,VALID,0,VALID,93.0514,VALID,118.508,VALID,19.9383,VALID,206,VALID,1.26836,
2014-01-21, 07:45:05,VALID,919.504,VALID,0,VALID,92.5864,VALID,121.838,VALID,19.9173,VALID,181,VALID,0.878516,
2014-01-21, 07:46:05,VALID,919.484,VALID,0,VALID,92.3043,VALID,126.243,VALID,19.9563,VALID,202,VALID,0.882422,
2014-01-21, 07:47:05,VALID,919.482,VALID,0,VALID,91.9689,VALID,130.541,VALID,19.9758,VALID,189,VALID,1.09492,
2014-01-21, 07:48:05,VALID,919.47,VALID,0,VALID,91.6868,VALID,136.128,VALID,19.9743,VALID,197,VALID,0.639844,
2014-01-21, 07:49:05,VALID,919.461,VALID,0,VALID,91.5039,VALID,144.079,VALID,20.0343,VALID,197,VALID,0.489844,
2014-01-21, 07:50:05,VALID,919.476,VALID,0,VALID,91.2066,VALID,151.922,VALID,20.0928,VALID,197,VALID,0.358984,
2014-01-21, 07:51:05,VALID,919.499,VALID,0,VALID,91.1303,VALID,152.029,VALID,20.1513,VALID,197,VALID,0.0746094,
2014-01-21, 07:52:05,VALID,919.511,VALID,0,VALID,90.9321,VALID,149.558,VALID,20.2684,VALID,197,VALID,0.2,
2014-01-21, 07:53:05,VALID,919.535,VALID,0,VALID,90.6348,VALID,140.103,VALID,20.3269,VALID,196,VALID,0.594922,
2014-01-21, 07:54:05,VALID,919.542,VALID,0,VALID,90.6119,VALID,149.128,VALID,20.4049,VALID,195,VALID,0.463281,
2014-01-21, 07:55:05,VALID,919.561,VALID,0,VALID,89.2931,VALID,143.864,VALID,20.3854,VALID,168,VALID,0.646875,
2014-01-21, 07:56:05,VALID,919.595,VALID,0,VALID,89.0796,VALID,150.847,VALID,20.4244,VALID,168,VALID,0.710547,
2014-01-21, 07:57:05,VALID,919.623,VALID,0,VALID,87.9209,VALID,150.525,VALID,20.4064,VALID,168,VALID,0.317187,
2014-01-21, 07:58:05,VALID,919.662,VALID,0,VALID,87.5549,VALID,144.293,VALID,20.504,VALID,168,VALID,0.662891,
2014-01-21, 07:59:05,VALID,919.658,VALID,0,VALID,87.837,VALID,135.806,VALID,20.5219,VALID,168,VALID,0.664453,
2014-01-21, 08:00:05,VALID,919.67,VALID,0,VALID,87.4787,VALID,128.822,VALID,20.5219,VALID,169,VALID,0.374219,
2014-01-21, 08:01:05,VALID,919.692,VALID,0,VALID,87.8675,VALID,125.276,VALID,20.5594,VALID,169,VALID,0.00703125,
2014-01-21, 08:02:05,VALID,919.697,VALID,0,VALID,88.1496,VALID,126.028,VALID,20.5984,VALID,169,VALID,0.508203,
2014-01-21, 08:03:05,VALID,919.707,VALID,0,VALID,88.1191,VALID,128.177,VALID,20.5789,VALID,169,VALID,0.352344,
2014-01-21, 08:04:05,VALID,919.688,VALID,0,VALID,87.5549,VALID,130.648,VALID,20.5984,VALID,169,VALID,0.262109,
2014-01-21, 08:05:05,VALID,919.704,VALID,0,VALID,87.1814,VALID,131.078,VALID,20.6194,VALID,169,VALID,0,
2014-01-21, 08:06:05,VALID,919.687,VALID,0,VALID,87.5854,VALID,131.615,VALID,20.678,VALID,169,VALID,0.592188,
2014-01-21, 08:07:05,VALID,919.684,VALID,0,VALID,88.2487,VALID,134.516,VALID,20.6585,VALID,169,VALID,0.538672,
2014-01-21, 08:08:05,VALID,919.661,VALID,0,VALID,87.9971,VALID,140.318,VALID,20.5984,VALID,169,VALID,0.178516,
2014-01-21, 08:09:05,VALID,919.673,VALID,0,VALID,87.6769,VALID,146.442,VALID,20.6585,VALID,169,VALID,0,
2014-01-21, 08:10:05,VALID,919.663,VALID,0,VALID,86.3504,VALID,150.955,VALID,20.6585,VALID,169,VALID,0.0121094,
2014-01-21, 08:11:05,VALID,919.675,VALID,0,VALID,85.9464,VALID,152.889,VALID,20.7154,VALID,169,VALID,0,
2014-01-21, 08:12:05,VALID,919.689,VALID,0,VALID,85.6796,VALID,153.963,VALID,20.834,VALID,169,VALID,0,
2014-01-21, 08:13:05,VALID,919.726,VALID,0,VALID,85.9083,VALID,155.467,VALID,20.8925,VALID,169,VALID,0,
2014-01-21, 08:14:05,VALID,919.721,VALID,0,VALID,86.0379,VALID,155.897,VALID,20.969,VALID,169,VALID,0.426562,
2014-01-21, 08:15:05,VALID,919.772,VALID,0,VALID,87.189,VALID,156.864,VALID,21.0697,VALID,3,VALID,1.0918,
2014-01-21, 08:16:05,VALID,919.77,VALID,0,VALID,86.1751,VALID,156.864,VALID,21.0112,VALID,10,VALID,0.757422,
2014-01-21, 08:17:05,VALID,919.76,VALID,0,VALID,87.5244,VALID,156.434,VALID,20.9917,VALID,16,VALID,1.00156,
2014-01-21, 08:18:05,VALID,919.791,VALID,0,VALID,87.6922,VALID,154.178,VALID,20.9706,VALID,357,VALID,0.635938,
2014-01-21, 08:19:05,VALID,919.793,VALID,0,VALID,88.302,VALID,161.699,VALID,20.9331,VALID,356,VALID,1.02578,
2014-01-21, 08:20:05,VALID,919.772,VALID,0,VALID,88.7518,VALID,165.459,VALID,20.8941,VALID,351,VALID,0.916406,
2014-01-21, 08:21:05,VALID,919.785,VALID,0,VALID,88.9958,VALID,162.021,VALID,20.8746,VALID,360,VALID,0.978906,
2014-01-21, 08:22:05,VALID,919.798,VALID,0,VALID,89.3388,VALID,156.434,VALID,20.8161,VALID,360,VALID,0.871875,
2014-01-21, 08:23:05,VALID,919.812,VALID,0,VALID,89.3464,VALID,155.145,VALID,20.8145,VALID,360,VALID,0.733203,
2014-01-21, 08:24:05,VALID,919.817,VALID,0,VALID,88.2944,VALID,161.377,VALID,20.834,VALID,359,VALID,0.742969,
2014-01-21, 08:25:05,VALID,919.798,VALID,0,VALID,88.0428,VALID,174.807,VALID,20.8551,VALID,359,VALID,0.291016,
2014-01-21, 08:26:05,VALID,919.801,VALID,0,VALID,87.7989,VALID,224.445,VALID,20.8535,VALID,359,VALID,0.250781,
2014-01-21, 08:27:05,VALID,919.773,VALID,0,VALID,88.3173,VALID,199.626,VALID,20.873,VALID,359,VALID,0.186328,
2014-01-21, 08:28:05,VALID,919.748,VALID,0,VALID,89.4074,VALID,207.791,VALID,20.9527,VALID,360,VALID,0.448828,
2014-01-21, 08:29:05,VALID,919.751,VALID,0,VALID,88.9881,VALID,254.206,VALID,21.0291,VALID,42,VALID,0.814844,
2014-01-21, 08:30:05,VALID,919.722,VALID,0,VALID,89.3236,VALID,299.868,VALID,21.1266,VALID,13,VALID,0.850781,
2014-01-21, 08:31:05,VALID,919.713,VALID,0,VALID,88.6527,VALID,297.29,VALID,21.2242,VALID,15,VALID,0.732813,
2014-01-21, 08:32:05,VALID,919.76,VALID,0,VALID,87.3796,VALID,257.107,VALID,21.3608,VALID,39,VALID,0.546094,
2014-01-21, 08:33:05,VALID,919.77,VALID,0,VALID,86.0684,VALID,259.041,VALID,21.4388,VALID,39,VALID,0.392578,
2014-01-21, 08:34:05,VALID,919.732,VALID,0,VALID,85.9769,VALID,233.255,VALID,21.4778,VALID,39,VALID,0.0449219,
2014-01-21, 08:35:05,VALID,919.765,VALID,0,VALID,85.7634,VALID,246.47,VALID,21.5559,VALID,29,VALID,0.375781,
2014-01-21, 08:36:05,VALID,919.742,VALID,0,VALID,85.5119,VALID,270.322,VALID,21.6924,VALID,29,VALID,0.361719,
2014-01-21, 08:37:05,VALID,919.731,VALID,0,VALID,84.963,VALID,206.18,VALID,21.7883,VALID,25,VALID,0.848437,
2014-01-21, 08:38:05,VALID,919.768,VALID,0,VALID,83.3087,VALID,205.32,VALID,21.8485,VALID,4,VALID,0.556641,
2014-01-21, 08:39:05,VALID,919.8,VALID,0,VALID,83.5526,VALID,212.626,VALID,21.8485,VALID,4,VALID,0.594141,
2014-01-21, 08:40:05,VALID,919.805,VALID,0,VALID,83.9948,VALID,217.783,VALID,21.751,VALID,11,VALID,0.5,
2014-01-21, 08:41:05,VALID,919.837,VALID,0,VALID,84.01,VALID,232.61,VALID,21.751,VALID,11,VALID,0.383984,
2014-01-21, 08:42:05,VALID,919.867,VALID,0,VALID,83.7737,VALID,246.148,VALID,21.79,VALID,330,VALID,0.460938,
2014-01-21, 08:43:05,VALID,919.871,VALID,0,VALID,84.071,VALID,254.206,VALID,21.6518,VALID,275,VALID,1.01445,
2014-01-21, 08:44:05,VALID,919.863,VALID,0,VALID,84.8029,VALID,263.768,VALID,21.4973,VALID,273,VALID,0.496094,
2014-01-21, 08:45:05,VALID,919.89,VALID,0,VALID,85.0087,VALID,282.033,VALID,21.4778,VALID,228,VALID,0.860937,
2014-01-21, 08:46:05,VALID,919.867,VALID,0,VALID,84.8867,VALID,294.174,VALID,21.4567,VALID,223,VALID,1.00898,
2014-01-21, 08:47:05,VALID,919.9,VALID,0,VALID,84.3302,VALID,272.793,VALID,21.4177,VALID,233,VALID,1.0543,
2014-01-21, 08:48:05,VALID,919.908,VALID,0,VALID,84.7495,VALID,266.776,VALID,21.3786,VALID,227,VALID,0.454688,
2014-01-21, 08:49:05,VALID,919.905,VALID,0,VALID,84.902,VALID,251.842,VALID,21.3981,VALID,216,VALID,0.574219,
2014-01-21, 08:50:05,VALID,919.94,VALID,0,VALID,84.9401,VALID,234.651,VALID,21.4957,VALID,216,VALID,0.450391,
2014-01-21, 08:51:05,VALID,919.978,VALID,0,VALID,84.2616,VALID,225.626,VALID,21.6518,VALID,216,VALID,0.671875,
2014-01-21, 08:52:05,VALID,919.921,VALID,0,VALID,82.3253,VALID,220.684,VALID,21.7298,VALID,206,VALID,0.441797,
2014-01-21, 08:53:05,VALID,919.924,VALID,0,VALID,82.6378,VALID,210.37,VALID,21.7705,VALID,206,VALID,0.305859,
2014-01-21, 08:54:05,VALID,919.946,VALID,0,VALID,82.5921,VALID,205.857,VALID,21.829,VALID,206,VALID,0.5125,
2014-01-21, 08:55:05,VALID,919.927,VALID,0,VALID,82.1347,VALID,236.478,VALID,21.8681,VALID,197,VALID,0.182422,
2014-01-21, 08:56:05,VALID,919.926,VALID,0,VALID,80.7701,VALID,297.719,VALID,21.9266,VALID,145,VALID,0.821875,
2014-01-21, 08:57:05,VALID,919.949,VALID,0,VALID,80.4957,VALID,389.152,VALID,22.003,VALID,141,VALID,0.605859,
2014-01-21, 08:58:05,VALID,919.958,VALID,0,VALID,79.8477,VALID,458.129,VALID,22.1591,VALID,174,VALID,0.48125,
2014-01-21, 08:59:05,VALID,920,VALID,0,VALID,77.3243,VALID,478.113,VALID,22.2957,VALID,175,VALID,0.585938,
2014-01-21, 09:00:05,VALID,920.033,VALID,0,VALID,76.8593,VALID,476.824,VALID,22.3916,VALID,175,VALID,0.316797,
2014-01-21, 09:01:04,VALID,920.066,VALID,0,VALID,77.1337,VALID,368.308,VALID,22.5281,VALID,172,VALID,0.889063,
2014-01-21, 09:02:04,VALID,920.056,VALID,0,VALID,75.0678,VALID,411.607,VALID,22.5672,VALID,158,VALID,0.70625,
2014-01-21, 09:03:04,VALID,920.056,VALID,0,VALID,73.8023,VALID,396.35,VALID,22.6452,VALID,158,VALID,0.285156,
2014-01-21, 09:04:04,VALID,920.017,VALID,0,VALID,73.2077,VALID,318.026,VALID,22.8599,VALID,156,VALID,0.0957031,
2014-01-21, 09:05:04,VALID,920.013,VALID,0,VALID,72.7503,VALID,374.003,VALID,23.1527,VALID,157,VALID,0.471094,
2014-01-21, 09:06:04,VALID,919.978,VALID,0,VALID,73.261,VALID,313.298,VALID,23.1917,VALID,148,VALID,0.483203,
2014-01-21, 09:07:04,VALID,919.982,VALID,0,VALID,72.918,VALID,371.424,VALID,23.2715,VALID,148,VALID,0.363281,
2014-01-21, 09:08:04,VALID,919.967,VALID,0,VALID,72.8799,VALID,465.005,VALID,23.1739,VALID,167,VALID,0.0230469,
2014-01-21, 09:09:04,VALID,919.944,VALID,0,VALID,73.2382,VALID,334.679,VALID,23.1136,VALID,167,VALID,0.295703,
2014-01-21, 09:10:04,VALID,919.961,VALID,0,VALID,73.6651,VALID,338.332,VALID,23.0763,VALID,169,VALID,0.197266,
2014-01-21, 09:11:04,VALID,919.949,VALID,0,VALID,73.5126,VALID,352.837,VALID,23.0959,VALID,169,VALID,0.595703,
2014-01-21, 09:12:04,VALID,919.998,VALID,0,VALID,73.566,VALID,499.709,VALID,23.1935,VALID,169,VALID,0.435937,
2014-01-21, 09:13:04,VALID,919.981,VALID,0,VALID,72.9637,VALID,543.33,VALID,23.3691,VALID,169,VALID,0.298438,
2014-01-21, 09:14:04,VALID,920.003,VALID,0,VALID,72.1328,VALID,471.774,VALID,23.6229,VALID,170,VALID,0.182812,
2014-01-21, 09:15:04,VALID,920.013,VALID,0,VALID,72.2319,VALID,333.068,VALID,23.74,VALID,47,VALID,1.11602,
2014-01-21, 09:16:04,VALID,920.014,VALID,0,VALID,74.2063,VALID,300.191,VALID,23.7791,VALID,22,VALID,0.560156,
2014-01-21, 09:17:04,VALID,919.983,VALID,0,VALID,74.6866,VALID,296.752,VALID,23.8181,VALID,39,VALID,0.408203,
2014-01-21, 09:18:04,VALID,919.983,VALID,0,VALID,73.6117,VALID,262.049,VALID,23.74,VALID,309,VALID,0.873828,
2014-01-21, 09:19:04,VALID,919.978,VALID,0,VALID,75.7081,VALID,229.494,VALID,23.4277,VALID,313,VALID,0.451172,
2014-01-21, 09:20:04,VALID,919.982,VALID,0,VALID,77.492,VALID,209.403,VALID,23.2307,VALID,356,VALID,0.533203,
2014-01-21, 09:21:04,VALID,919.992,VALID,0,VALID,76.3638,VALID,205.427,VALID,23.1136,VALID,303,VALID,0.414453,
2014-01-21, 09:22:04,VALID,920.006,VALID,0,VALID,76.7525,VALID,201.667,VALID,23.0551,VALID,311,VALID,0.310547,
2014-01-21, 09:23:04,VALID,920.002,VALID,0,VALID,77.7512,VALID,200.27,VALID,23.0941,VALID,311,VALID,0.420703,
2014-01-21, 09:24:04,VALID,920.038,VALID,0,VALID,77.3624,VALID,196.617,VALID,23.1154,VALID,336,VALID,0.912891,
2014-01-21, 09:25:04,VALID,920.04,VALID,0,VALID,77.7055,VALID,194.254,VALID,22.9965,VALID,344,VALID,0.166406,
2014-01-21, 09:26:04,VALID,920.063,VALID,0,VALID,78.2391,VALID,187.27,VALID,22.938,VALID,344,VALID,0.127344,
2014-01-21, 09:27:04,VALID,920.092,VALID,0,VALID,78.5669,VALID,188.344,VALID,22.9575,VALID,335,VALID,0.378125,
2014-01-21, 09:28:04,VALID,920.086,VALID,0,VALID,77.7741,VALID,192.212,VALID,22.9202,VALID,355,VALID,0.437109,
2014-01-21, 09:29:04,VALID,920.082,VALID,0,VALID,77.8579,VALID,194.254,VALID,22.8972,VALID,6,VALID,0.522656,
2014-01-21, 09:30:04,VALID,920.071,VALID,0,VALID,78.4678,VALID,192.32,VALID,22.9787,VALID,5,VALID,1.08047,
2014-01-21, 09:31:04,VALID,920.089,VALID,0,VALID,77.4158,VALID,195.006,VALID,22.9575,VALID,45,VALID,1.11484,
2014-01-21, 09:32:04,VALID,920.083,VALID,0,VALID,77.2328,VALID,204.675,VALID,22.8989,VALID,52,VALID,0.868359,
2014-01-21, 09:33:04,VALID,920.081,VALID,0,VALID,77.9647,VALID,211.014,VALID,22.8989,VALID,28,VALID,0.379687,
2014-01-21, 09:34:04,VALID,920.084,VALID,0,VALID,77.1871,VALID,218.106,VALID,22.938,VALID,308,VALID,0.05,
2014-01-21, 09:35:04,VALID,920.115,VALID,0,VALID,76.3561,VALID,254.528,VALID,22.9965,VALID,335,VALID,0.642969,
2014-01-21, 09:36:04,VALID,920.108,VALID,0,VALID,76.0283,VALID,262.694,VALID,23.0143,VALID,350,VALID,0.415234,
2014-01-21, 09:37:04,VALID,920.104,VALID,0,VALID,74.9915,VALID,444.269,VALID,23.1917,VALID,350,VALID,0.383594,
2014-01-21, 09:38:04,VALID,920.159,VALID,0,VALID,75.3194,VALID,483.593,VALID,23.3869,VALID,350,VALID,0.377734,
2014-01-21, 09:39:04,VALID,920.154,VALID,0,VALID,74.9077,VALID,500.891,VALID,23.465,VALID,328,VALID,0.208984,
2014-01-21, 09:40:04,VALID,920.158,VALID,0,VALID,73.3982,VALID,432.451,VALID,23.4259,VALID,303,VALID,0.724609,
2014-01-21, 09:41:04,VALID,920.206,VALID,0,VALID,74.9077,VALID,515.61,VALID,23.3674,VALID,271,VALID,0.832812,
2014-01-21, 09:42:04,VALID,920.212,VALID,0,VALID,75.022,VALID,505.188,VALID,23.4454,VALID,234,VALID,0.964844,
2014-01-21, 09:43:04,VALID,920.209,VALID,0,VALID,74.5799,VALID,389.152,VALID,23.5608,VALID,234,VALID,0.770703,
2014-01-21, 09:44:04,VALID,920.172,VALID,0,VALID,74.5951,VALID,292.347,VALID,23.4437,VALID,234,VALID,0.753516,
2014-01-21, 09:45:04,VALID,920.157,VALID,0,VALID,74.3817,VALID,376.151,VALID,23.3869,VALID,268,VALID,0.984375,
2014-01-21, 09:46:04,VALID,920.148,VALID,0,VALID,74.8162,VALID,538.388,VALID,23.2112,VALID,268,VALID,0.596094,
2014-01-21, 09:47:04,VALID,920.14,VALID,0,VALID,75.4642,VALID,520.123,VALID,23.2307,VALID,263,VALID,0.319141,
2014-01-21, 09:48:04,VALID,920.14,VALID,0,VALID,74.5113,VALID,520.445,VALID,23.4241,VALID,263,VALID,0.563672,
2014-01-21, 09:49:04,VALID,920.16,VALID,0,VALID,74.1453,VALID,600.918,VALID,23.5608,VALID,263,VALID,0.653125,
2014-01-21, 09:50:04,VALID,920.155,VALID,0,VALID,74.3817,VALID,623.051,VALID,23.7364,VALID,263,VALID,0.401953,
2014-01-21, 09:51:04,VALID,920.152,VALID,0,VALID,74.214,VALID,642.391,VALID,23.9493,VALID,22,VALID,0.989844,
2014-01-21, 09:52:04,VALID,920.148,VALID,0,VALID,72.674,VALID,629.713,VALID,23.9689,VALID,106,VALID,0.757813,
2014-01-21, 09:53:04,VALID,920.156,VALID,0,VALID,71.6296,VALID,615.745,VALID,24.086,VALID,106,VALID,0.789453,
2014-01-21, 09:54:04,VALID,920.165,VALID,0,VALID,71.2408,VALID,627.456,VALID,24.3398,VALID,106,VALID,0.587891,
2014-01-21, 09:55:04,VALID,920.155,VALID,0,VALID,68.2143,VALID,637.986,VALID,24.5564,VALID,179,VALID,0.784375,
2014-01-21, 09:56:04,VALID,920.118,VALID,0,VALID,68.9157,VALID,639.812,VALID,24.4002,VALID,104,VALID,1.03398,
2014-01-21, 09:57:04,VALID,920.089,VALID,0,VALID,67.3148,VALID,599.522,VALID,24.4392,VALID,40,VALID,1.36836,
2014-01-21, 09:58:04,VALID,920.081,VALID,0,VALID,67.6045,VALID,667.747,VALID,24.1836,VALID,89,VALID,1.93047,
2014-01-21, 09:59:04,VALID,920.077,VALID,0,VALID,68.3744,VALID,666.565,VALID,24.0683,VALID,44,VALID,2.2125,
2014-01-21, 10:00:04,VALID,920.038,VALID,0,VALID,69.4874,VALID,623.481,VALID,23.9902,VALID,24,VALID,1.92148,
2014-01-21, 10:01:04,VALID,920.031,VALID,0,VALID,69.8762,VALID,577.711,VALID,24.0878,VALID,93,VALID,1.09492,
2014-01-21, 10:02:04,VALID,920.032,VALID,0,VALID,68.7937,VALID,372.176,VALID,24.2031,VALID,53,VALID,1.21875,
2014-01-21, 10:03:04,VALID,920.027,VALID,0,VALID,69.4036,VALID,342.522,VALID,24.283,VALID,64,VALID,1.25508,
2014-01-21, 10:04:04,VALID,920.042,VALID,0,VALID,68.7785,VALID,332.101,VALID,24.2635,VALID,101,VALID,0.932422,
2014-01-21, 10:05:04,VALID,919.998,VALID,0,VALID,68.5269,VALID,331.134,VALID,24.0878,VALID,106,VALID,0.630859,
2014-01-21, 10:06:04,VALID,920.006,VALID,0,VALID,70.0668,VALID,309.968,VALID,24.1055,VALID,63,VALID,1.325,
2014-01-21, 10:07:04,VALID,920.036,VALID,0,VALID,67.7188,VALID,302.662,VALID,24.1073,VALID,114,VALID,1.64648,
2014-01-21, 10:08:04,VALID,920.029,VALID,0,VALID,68.2677,VALID,317.596,VALID,23.7932,VALID,120,VALID,1.00898,
2014-01-21, 10:09:04,VALID,920.048,VALID,0,VALID,70.4327,VALID,351.01,VALID,23.637,VALID,117,VALID,0.334766,
2014-01-21, 10:10:04,VALID,920.034,VALID,0,VALID,70.5852,VALID,374.647,VALID,23.8127,VALID,78,VALID,1.12344,
2014-01-21, 10:11:04,VALID,920.025,VALID,0,VALID,69.7009,VALID,367.556,VALID,23.9298,VALID,30,VALID,1.19219,
2014-01-21, 10:12:04,VALID,920.065,VALID,0,VALID,69.1977,VALID,347.142,VALID,23.9103,VALID,30,VALID,0.432031,
2014-01-21, 10:13:04,VALID,920.078,VALID,0,VALID,69.3426,VALID,298.794,VALID,23.9689,VALID,38,VALID,0.781641,
2014-01-21, 10:14:04,VALID,920.068,VALID,0,VALID,70.1431,VALID,303.091,VALID,23.8908,VALID,65,VALID,0.579687,
2014-01-21, 10:15:04,VALID,920.039,VALID,0,VALID,69.5256,VALID,317.166,VALID,23.7346,VALID,51,VALID,2.06836,
2014-01-21, 10:16:04,VALID,920.054,VALID,0,VALID,73.5583,VALID,316.629,VALID,23.6157,VALID,53,VALID,1.05039,
2014-01-21, 10:17:04,VALID,920.077,VALID,0,VALID,71.8964,VALID,286.116,VALID,23.637,VALID,7,VALID,1.23477,
2014-01-21, 10:18:04,VALID,920.056,VALID,0,VALID,70.0211,VALID,259.363,VALID,23.637,VALID,49,VALID,0.963672,
2014-01-21, 10:19:04,VALID,920.063,VALID,0,VALID,71.3475,VALID,252.594,VALID,23.6956,VALID,356,VALID,1.28398,
2014-01-21, 10:20:04,VALID,920.051,VALID,0,VALID,71.5,VALID,253.239,VALID,23.6956,VALID,14,VALID,1.2125,
2014-01-21, 10:21:04,VALID,920.064,VALID,0,VALID,70.8292,VALID,266.884,VALID,23.6743,VALID,29,VALID,1.04492,
2014-01-21, 10:22:04,VALID,920.036,VALID,0,VALID,71.5076,VALID,261.189,VALID,23.7542,VALID,6,VALID,0.992188,
2014-01-21, 10:23:04,VALID,920.056,VALID,0,VALID,69.091,VALID,240.131,VALID,23.889,VALID,6,VALID,0.314063,
2014-01-21, 10:24:04,VALID,920.05,VALID,0,VALID,68.7175,VALID,221.759,VALID,23.8713,VALID,30,VALID,0.827734,
2014-01-21, 10:25:04,VALID,920.038,VALID,0,VALID,68.2219,VALID,218.32,VALID,23.8304,VALID,30,VALID,0.499219,
2014-01-21, 10:26:04,VALID,920.036,VALID,0,VALID,69.8991,VALID,225.519,VALID,23.8322,VALID,30,VALID,0.822656,
2014-01-21, 10:27:04,VALID,920.031,VALID,0,VALID,67.1623,VALID,234.651,VALID,23.8713,VALID,34,VALID,1.10586,
2014-01-21, 10:28:04,VALID,920.027,VALID,0,VALID,70.0211,VALID,231.751,VALID,23.7346,VALID,34,VALID,0.833594,
2014-01-21, 10:29:04,VALID,920.039,VALID,0,VALID,69.0529,VALID,229.279,VALID,23.6956,VALID,33,VALID,0.644141,
2014-01-21, 10:30:04,VALID,920.039,VALID,0,VALID,68.969,VALID,226.486,VALID,23.6956,VALID,29,VALID,1.10898,
2014-01-21, 10:31:04,VALID,920.065,VALID,0,VALID,69.2282,VALID,213.7,VALID,23.7542,VALID,1,VALID,0.803125,
2014-01-21, 10:32:04,VALID,920.081,VALID,0,VALID,69.3273,VALID,204.031,VALID,23.7737,VALID,18,VALID,1.28789,
2014-01-21, 10:33:04,VALID,920.138,VALID,0,VALID,67.1699,VALID,204.461,VALID,23.6352,VALID,15,VALID,1.2,